Regional Weather Roundup
Issued by NWS

Home | Current Version | Previous Version | Graphics & Text | Print | Product List | Glossary On
Versions: 1 2 3 4 5 6 7 8 9 10 11 12 13 14 15 16 17 18 19 20 21 22 23 24 25 26 27 28 29 30 31 32 33 34 35 36 37 38 39 40 41 42 43 44 45 46 47 48 49 50
000
ASUS43 KBIS 291110
RWRND
NORTH DAKOTA REGIONAL WEATHER ROUNDUP
NATIONAL WEATHER SERVICE EASTERN NORTH DAKOTA/GRAND FORKS ND
600 AM CDT THU JUN 29 2017

  NOTE: "FAIR" INDICATES FEW OR NO CLOUDS BELOW 12,000 FEET WITH NO
  SIGNIFICANT WEATHER AND/OR OBSTRUCTIONS TO VISIBILITY.

NDZ001>003-009>011-017-291200-
...NORTHWEST NORTH DAKOTA...

CITY           SKY/WX    TMP DP  RH WIND       PRES   REMARKS
WILLISTON      MOCLDY    53  48  83 N5        29.80S
MINOT          FAIR      56  50  80 W3        29.79R
MINOT AFB      FAIR      49  47  93 W6        29.78R
$$

NDZ018>021-031>035-040>046-291200-
...SOUTHWEST NORTH DAKOTA...

CITY           SKY/WX    TMP DP  RH WIND       PRES   REMARKS
BISMARCK       FAIR      59  55  87 CALM      29.80R
DICKINSON      FAIR      59  44  57 E7        29.78R
GARRISON         N/A     56  51  84 N3        29.79R
HETTINGER      CLOUDY    58  48  69 S7        29.83R
$$

NDZ004>008-012>016-024-026-027-054-291200-
...NORTHEAST NORTH DAKOTA...

CITY           SKY/WX    TMP DP  RH WIND       PRES   REMARKS
GRAND FORKS    FOG       58  58 100 W3        29.75R VSB 1/4
GRAND FORKS AF FOG       57  57 100 N3        29.75R VSB 1/4
DEVILS LAKE    FOG       54  54 100 CALM      29.78R VSB 1/4
$$

NDZ022-023-025-028>030-036>039-047>053-291200-
...SOUTHEAST NORTH DAKOTA...

CITY           SKY/WX    TMP DP  RH WIND       PRES   REMARKS
JAMESTOWN      FAIR      53  51  93 NW3       29.75F
FARGO          CLOUDY    62  60  93 N8        29.74S
WAHPETON       CLOUDY    61  55  82 N8        29.73F
$$




USA.gov is the U.S. government's official web portal to all federal, state and local government web resources and services.